Retour au catalogue

FENGYUN 1C DEB

ActifPO
NORAD 30529·DEBRIS·🇨🇳 China

Lancé May 10, 1999 depuis Taiyuan Satellite Launch Center

Loading…

Prochains Passages (prochaines 24 heures)

TLE

FraisSource: Space-Track

Époque: Sep 14, 2026, 03:59 UTC

1 30529U 99025AJT 26257.16633140  .00000643  00000-0  61859-3 0  9995
2 30529  98.4754 152.6734 0228507 204.2671 154.7582 13.72298672977857

Suivez FENGYUN 1C DEB en temps réel avec AllMySat

Download on the App Store